Location: Althorst
(53.6379°N, 10.7715°E)
Time: 17:33:02
(UTC+00:00)

CZ-4 R/B - Pass Details

Date: 10 December 2019
Orbit: 532 x 598 km, 97.7° (Epoch: 19 January)

Event Time Altitude Azimuth Distance (km) Brightness Sun altitude
Rises 15:34:06 0° 104° (ESE) 2,702 4.4 -5.3°
Reaches altitude 10° 15:37:57 10° 64° (ENE) 1,804 3.3 -5.8°
Maximum altitude 15:38:45 11° 52° (NE) 1,769 3.2 -5.9°
Drops below altitude 10° 15:39:33 10° 40° (NE) 1,803 3.3 -6.0°
Sets 15:43:22 0° 1° (N) 2,696 4.5 -6.5°
